Simultaneous Nadir Overpasses (SNOs) Predictions

Prediction of SNOs between AQUA and GOES-15 Satellite Orbit:

Table of predicted SNOs for the next 14.0 days since TLE Epoch: 2/3/2012
Index Date Time (AQUA) AQUA Lat,Lon GOES-15 Lat,Lon Distance(km) Time Diff (sec)
1 02/04/2012 10:19:36 -0.81,-131.21 0.01,-134.92 423.44 80
2 02/04/2012 22:41:00 -0.35,-136.39 -0.01,-134.92 167.23 80
3 02/06/2012 22:28:52 0.33,-133.45 -0.01,-134.99 175.10 80
4 02/07/2012 10:50:08 0.78,-138.61 0.00,-135.02 407.79 80
5 02/09/2012 10:37:59 0.14,-135.66 0.00,-135.08 65.89 80
6 02/11/2012 10:25:50 -0.51,-132.71 0.00,-135.13 275.57 80
7 02/11/2012 22:47:14 -0.57,-137.91 -0.00,-135.13 315.26 80
8 02/13/2012 22:35:04 0.05,-134.95 0.00,-135.18 25.23 80
9 02/15/2012 22:22:55 0.68,-132.00 0.01,-135.21 364.99 80
10 02/16/2012 10:44:10 0.42,-137.16 -0.01,-135.24 218.85 80




NCC Satellite Simultaneous Nadir Overpasses (SNOs) Prediction Service
